GW4477 Weather Reports


time (UTC)temp
F
wind
direction
speed
knots
gust
knots
rain 1hr
in
rain 24hr
in
rain mn
in
humidity
%
barometer
mb
20260906221515 94 174 6.1 13.0 0.00 0.01 0.01 39 1014.6
20260906220015 94 230 6.1 13.9 0.00 0.01 0.01 40 1014.6
20260906214505 95 173 7.0 13.9 0.00 0.01 0.01 39 1014.9
20260906213016 94 360 7.8 14.8 0.00 0.01 0.01 39 1015.0
20260906211529 94 157 7.8 13.9 0.00 0.01 0.01 39 1015.2
20260906210018 94 215 8.7 17.4 0.00 0.01 0.01 39 1015.4
20260906204505 94 209 7.0 13.9 0.00 0.01 0.01 41 1015.5
20260906203006 93 168 7.0 16.5 0.00 0.01 0.01 42 1015.8
20260906201514 93 194 7.8 14.8 0.00 0.01 0.01 42 1016.0
20260906200033 92 178 7.8 14.8 0.00 0.01 0.01 43 1016.2
20260906194526 92 190 7.0 17.4 0.00 0.01 0.01 44 1016.4
20260906193006 92 179 7.8 16.5 0.00 0.01 0.01 44 1016.8
20260906191514 91 191 7.0 14.8 0.00 0.01 0.01 46 1016.9
20260906190017 90 175 8.7 13.9 0.00 0.01 0.01 45 1017.2
20260906184521 88 186 7.8 14.8 0.00 0.01 0.01 49 1017.4
20260906183028 86 160 9.6 15.6 0.00 0.01 0.01 51 1017.8
20260906181526 86 132 7.0 16.5 0.00 0.01 0.01 52 1018.1
20260906180020 86 154 8.7 13.9 0.00 0.01 0.01 54 1018.4
20260906174518 86 182 9.6 17.4 0.00 0.01 0.01 54 1018.7
20260906173027 85 133 7.8 18.2 0.00 0.01 0.01 57 1018.9
20260906171530 85 121 8.7 15.6 0.00 0.01 0.01 57 1019.1
20260906170014 83 197 8.7 16.5 0.00 0.01 0.01 61 1019.2
20260906164517 82 184 8.7 15.6 0.00 0.01 0.01 63 1019.4
20260906163023 81 71 8.7 15.6 0.00 0.01 0.01 66 1019.6
20260906161528 80 122 7.8 15.6 0.00 0.01 0.01 70 1019.6
20260906160030 79 117 9.6 13.9 0.00 0.01 0.01 71 1019.6
20260906154531 78 110 7.8 14.8 0.00 0.01 0.01 74 1019.7
20260906153024 76 128 7.0 12.2 0.00 0.01 0.01 76 1019.6
20260906151528 76 92 9.6 13.9 0.00 0.01 0.01 78 1019.5
20260906150032 74 98 7.8 11.3 0.00 0.01 0.01 81 1019.2
20260906144502 72 115 7.0 11.3 0.00 0.01 0.01 81 1019.5
20260906143003 72 128 2.6 7.8 0.01 0.01 0.01 85 1019.4
20260906141505 71 102 1.7 6.1 0.01 0.01 0.01 86 1019.3
20260906140008 71 58 1.7 5.2 0.01 0.01 0.01 85 1018.9
20260906134519 72 102 0.0 1.7 0.01 0.01 0.01 82 1018.7
20260906133004 73 96 0.0 1.7 0.00 0.00 0.00 79 1018.6
20260906131509 73 92 0.0 1.7 0.00 0.00 0.00 78 1018.1
20260906130006 72 165 0.0 3.5 0.00 0.00 0.00 79 1017.8
20260906124509 72 131 0.9 1.7 0.00 0.00 0.00 79 1017.4
20260906123017 71 181 0.9 2.6 0.00 0.00 0.00 80 1017.1
20260906121504 71 196 0.9 2.6 0.00 0.00 0.00 80 1017.0
20260906120004 71 360 0.9 3.5 0.00 0.00 0.00 80 1017.0
20260906114520 72 238 1.7 3.5 0.00 0.00 0.00 78 1016.7
20260906113018 72 180 1.7 5.2 0.00 0.00 0.00 78 1016.6
20260906111532 72 211 2.6 6.1 0.00 0.00 0.00 78 1016.6
20260906110003 72 179 2.6 4.3 0.00 0.00 0.00 78 1016.4
20260906104510 73 360 1.7 4.3 0.00 0.00 0.00 77 1016.5
20260906103014 73 165 0.9 2.6 0.00 0.00 0.00 77 1016.6
20260906101520 73 150 0.0 1.7 0.00 0.00 0.00 77 1016.6
20260906100032 73 188 0.0 0.9 0.00 0.00 0.00 76 1016.6
20260906094530 74 188 0.0 1.7 0.00 0.00 0.00 74 1016.7
20260906093018 75 210 0.0 1.7 0.00 0.00 0.00 73 1016.5
20260906091518 75 248 0.0 3.5 0.00 0.00 0.00 72 1016.4
20260906090030 75 232 0.9 7.0 0.00 0.00 0.00 71 1016.5
20260906084528 76 189 3.5 7.8 0.00 0.00 0.00 71 1016.4
20260906083014 75 173 3.5 7.8 0.00 0.00 0.00 71 1016.5
20260906081530 75 360 2.6 7.8 0.00 0.00 0.00 72 1016.7
20260906080039 75 155 0.9 3.5 0.00 0.00 0.00 72 1016.8
20260906074533 75 185 1.7 4.3 0.00 0.00 0.00 71 1016.7
20260906073030 75 195 1.7 4.3 0.00 0.00 0.00 71 1017.0
20260906071514 75 209 1.7 5.2 0.00 0.00 0.00 72 1017.0
20260906070026 74 360 2.6 4.3 0.00 0.00 0.00 72 1017.0
20260906064526 75 186 1.7 3.5 0.00 0.00 0.00 71 1016.8
20260906063035 75 197 0.9 3.5 0.00 0.00 0.00 71 1016.9
20260906061532 75 152 0.9 3.5 0.00 0.00 0.00 70 1017.1
20260906060015 75 194 0.9 3.5 0.00 0.00 0.00 71 1017.1
20260906054531 74 188 0.9 1.7 0.00 0.00 0.00 71 1017.0
20260906053028 74 178 0.9 2.6 0.00 0.00 0.00 70 1016.7
20260906051510 75 128 0.9 1.7 0.00 0.00 0.00 68 1016.4
20260906050014 76 178 0.0 0.0 0.00 0.00 0.00 66 1016.4
20260906044525 77 162 0.0 1.7 0.00 0.00 0.00 65 1016.0
20260906043028 78 239 1.7 4.3 0.00 0.00 0.00 63 1015.8
20260906041508 79 360 2.6 5.2 0.00 0.00 0.00 60 1015.8
20260906040020 80 167 3.5 7.0 0.00 0.00 0.00 59 1015.8
20260906034520 80 360 3.5 7.8 0.00 0.00 0.00 58 1015.8
20260906033037 80 150 3.5 8.7 0.00 0.00 0.00 58 1015.9
20260906031537 81 360 4.3 10.4 0.00 0.00 0.00 57 1015.9
20260906030012 81 141 5.2 12.2 0.00 0.00 0.00 57 1015.8
20260906024533 81 172 5.2 13.0 0.00 0.00 0.00 57 1015.8
20260906023026 81 184 6.1 11.3 0.00 0.00 0.00 57 1015.5
20260906021529 81 132 5.2 11.3 0.00 0.00 0.00 57 1015.2
20260906020032 82 121 5.2 9.6 0.00 0.00 0.00 56 1015.1
20260906014527 82 360 4.3 10.4 0.00 0.00 0.00 55 1015.0
20260906013039 83 150 6.1 10.4 0.00 0.00 0.00 53 1015.0
20260906011529 85 161 5.2 12.2 0.00 0.00 0.00 52 1014.9
20260906010032 86 176 6.1 10.4 0.00 0.00 0.00 51 1014.8
20260906004531 87 140 4.3 11.3 0.00 0.00 0.00 48 1014.7
20260906003025 90 360 2.6 5.2 0.00 0.00 0.00 40 1014.6
20260906001528 91 167 0.9 7.0 0.00 0.00 0.00 40 1014.8
20260906000030 91 169 2.6 6.1 0.00 0.00 0.00 40 1014.9
20260905234512 92 177 1.7 5.2 0.00 0.00 0.00 40 1014.9
20260905233002 93 360 2.6 9.6 0.00 0.00 0.00 38 1014.7
20260905231504 94 360 4.3 10.4 0.00 0.00 0.00 37 1014.6
20260905230006 96 360 5.2 10.4 0.00 0.00 0.00 36 1014.5
20260905224510 96 226 4.3 11.3 0.00 0.00 0.00 35 1014.3
20260905223014 97 168 5.2 10.4 0.00 0.00 0.00 35 1014.2